Location: Hamilton
(43.2500°N, 79.8330°W)
Time: 02:24:57
(UTC-04:00)

Amateur Radio Satellites - All Passes

Search period start: 23 March 2017 01:54
Search period end: 24 March 2017 01:54
Location: Hamilton, 43.2500°N, 79.8330°W

Satellite Date Start Highest point End Downlink Frequencies (MHz)
Time Altitude Azimuth
NANOSAT C BR1 23 Mar 01:58:36 02:02:26 33° 290° (WNW) 02:06:12 145.865
EO-79 23 Mar 02:00:32 02:04:14 29° 292° (WNW) 02:07:54 145.935-145.965
SPROUT 23 Mar 02:11:38 02:13:46 13° 270° (W) 02:15:55 437.525
Gurwin Techsat 1B 23 Mar 02:18:07 02:22:09 21° 93° (E) 02:26:08 435.225
DX 1 23 Mar 02:21:13 02:24:29 21° 266° (W) 02:27:46 434.975-435.025
RS-15 23 Mar 02:22:03 02:25:39 12° 269° (W) 02:29:13 29.354- 29.394
FO-29 23 Mar 02:22:40 02:23:34 10° 312° (NW) 02:24:27 435.910
ISS 23 Mar 02:24:12 02:26:38 19° 1° (N) 02:29:03 437.550
POLYITAN 1 23 Mar 02:28:11 02:30:51 16° 296° (WNW) 02:33:30 437.675
QB50P2 23 Mar 02:32:58 02:35:11 14° 298° (WNW) 02:37:23 145.880/145.840
MOZHAYETS 4 23 Mar 02:33:28 02:35:29 13° 60° (ENE) 02:37:29
Oscar 19 23 Mar 02:36:44 02:41:48 54° 100° (E) 02:46:51 437.125/150
SO-50 23 Mar 02:40:34 02:43:17 16° 250° (WSW) 02:46:01 436.795
Tancredo 1 23 Mar 02:43:02 02:45:23 19° 6° (N) 02:47:46 437.200
DUCHIFAT 1 23 Mar 02:52:24 02:53:48 11° 300° (WNW) 02:55:13 145.980
BEESAT 23 Mar 03:13:35 03:18:22 77° 75° (ENE) 03:23:10 436.000
AO-7 23 Mar 03:17:20 03:21:33 15° 87° (E) 03:25:44 .
BUGSAT 1 23 Mar 03:24:53 03:27:06 14° 298° (WNW) 03:29:17 437.445
ITUPSAT 1 23 Mar 03:26:57 03:31:46 81° 256° (WSW) 03:36:36 437.325
O/OREOS (USA 219) 23 Mar 03:48:56 03:53:26 49° 63° (ENE) 03:57:53 437.305
Gurwin Techsat 1B 23 Mar 03:57:13 04:02:22 51° 290° (WNW) 04:07:30 435.225
ISS 23 Mar 04:00:47 04:03:49 32° 21° (NNE) 04:06:50 437.550
MOZHAYETS 4 23 Mar 04:07:24 04:12:00 77° 256° (WSW) 04:16:38
ITAMSAT 1 23 Mar 04:14:40 04:19:36 42° 99° (E) 04:24:30 435.822/435.867
Oscar 19 23 Mar 04:16:56 04:20:44 21° 298° (WNW) 04:24:31 437.125/150
Tancredo 1 23 Mar 04:19:03 04:22:08 43° 26° (NNE) 04:25:14 437.200
KKS-1 23 Mar 04:19:11 04:23:12 34° 68° (ENE) 04:27:13 437.445
CUBESAT XI-V 23 Mar 04:48:42 04:53:06 48° 72° (ENE) 04:57:31 437.345
BEESAT 23 Mar 04:54:56 04:56:41 12° 271° (W) 04:58:26 436.000
STARS 23 Mar 05:06:37 05:10:51 47° 71° (ENE) 05:15:07 437.465
AO-7 23 Mar 05:07:18 05:15:38 76° 107° (ESE) 05:23:55 .
M-CUBED/EXP-1 PRIME 23 Mar 05:16:43 05:18:47 14° 56° (ENE) 05:20:56 437.505
O/OREOS (USA 219) 23 Mar 05:29:21 05:32:25 18° 260° (W) 05:35:29 437.305
ISS 23 Mar 05:37:12 05:40:22 45° 219° (SW) 05:43:33 437.550
ITAMSAT 1 23 Mar 05:54:34 05:58:51 26° 296° (WNW) 06:03:06 435.822/435.867
Tancredo 1 23 Mar 05:55:25 05:58:12 27° 223° (SW) 06:00:57 437.200
KKS-1 23 Mar 05:56:09 05:59:47 24° 265° (W) 06:03:27 437.445
CUBESAT XI-V 23 Mar 06:27:39 06:30:44 18° 268° (W) 06:33:51 437.345
XW-2C 23 Mar 06:28:32 06:30:11 12° 91° (E) 06:31:49 145.795 - 145.815
AO-85 23 Mar 06:40:37 06:44:15 35° 49° (NE) 06:47:56 145.980
STARS 23 Mar 06:44:32 06:47:26 17° 268° (W) 06:50:22 437.465
M-CUBED/EXP-1 PRIME 23 Mar 06:49:20 06:52:47 48° 256° (WSW) 06:56:33 437.505
DOVE 4 23 Mar 07:00:32 07:05:41 49° 98° (E) 07:10:46 437.250
AO-7 23 Mar 07:01:01 07:07:39 28° 307° (NW) 07:14:17 .
CUTE-I 23 Mar 07:14:38 07:19:42 41° 98° (E) 07:24:43 437.470
LilacSat-2 23 Mar 07:15:52 07:19:32 48° 99° (E) 07:23:10 437.200
STRAND 1 23 Mar 07:18:12 07:23:04 45° 70° (ENE) 07:27:59 437.568
XW-2F 23 Mar 07:21:44 07:25:24 53° 100° (E) 07:29:03 145.980 - 146.000
HO-68 23 Mar 07:31:40 07:36:03 17° 89° (E) 07:40:26 435.675
XW-2A 23 Mar 07:41:55 07:43:06 11° 91° (E) 07:44:17 145.665 - 145.685
XW-2D 23 Mar 07:45:05 07:48:50 71° 285° (WNW) 07:52:33 145.860 - 145.880
YUBILEINY 23 Mar 07:47:14 07:54:37 32° 83° (E) 08:01:58 435.215
XW-2B 23 Mar 07:50:56 07:54:40 62° 285° (WNW) 07:58:21 145.730 - 145.750
NO-84 23 Mar 07:54:35 07:55:35 11° 127° (SE) 07:56:35 435.350 FM
NUDT-PHONESAT 23 Mar 07:59:01 08:02:40 60° 285° (WNW) 08:06:17 437.300
XW-2C 23 Mar 08:01:02 08:04:39 45° 287° (WNW) 08:08:13 145.795 - 145.815
KAITUO 1B 23 Mar 08:01:15 08:04:53 56° 285° (WNW) 08:08:29 145.475/437.950
BEESAT 3 23 Mar 08:09:13 08:12:50 31° 48° (NE) 08:16:25 437.485
BEESAT 2 23 Mar 08:16:23 08:19:15 18° 41° (NE) 08:22:06 435.950
AO-85 23 Mar 08:21:23 08:24:27 22° 246° (WSW) 08:27:35 145.980
AAUSAT CUBESAT 2 23 Mar 08:26:27 08:27:45 11° 89° (E) 08:29:02 437.432
CUTE 1.7 + AOD 2 23 Mar 08:27:24 08:31:19 37° 97° (E) 08:35:13 437.475
SEEDS 23 Mar 08:28:24 08:31:52 25° 95° (E) 08:35:19 437.485
DOVE 4 23 Mar 08:38:49 08:43:01 24° 295° (WNW) 08:47:12 437.250
UWE-3 23 Mar 08:40:57 08:43:25 15° 90° (E) 08:45:50 435.000/436.395/437.385
PRISM 23 Mar 08:49:41 08:51:44 14° 62° (ENE) 08:53:49 437.425
LilacSat-2 23 Mar 08:51:37 08:53:24 13° 296° (WNW) 08:55:10 437.200
CUTE-I 23 Mar 08:55:03 08:59:33 28° 296° (WNW) 09:04:01 437.470
XW-2F 23 Mar 08:57:40 08:59:06 12° 297° (WNW) 09:00:31 145.980 - 146.000
STRAND 1 23 Mar 08:58:22 09:02:26 23° 266° (W) 09:06:32 437.568
FO-29 23 Mar 09:03:28 09:07:52 17° 54° (NE) 09:12:09 435.910
CUBEBUG 2 23 Mar 09:04:59 09:09:17 44° 98° (E) 09:13:24 437.445
XW-2A 23 Mar 09:12:52 09:16:05 39° 287° (WNW) 09:19:16 145.665 - 145.685
HO-68 23 Mar 09:17:27 09:24:40 89° 283° (WNW) 09:31:51 435.675
Oscar 11 23 Mar 09:29:38 09:33:02 22° 94° (E) 09:36:25 .
ZACube-1 23 Mar 09:29:40 09:33:23 28° 95° (E) 09:37:00 437.345
NO-84 23 Mar 09:29:57 09:32:44 55° 323° (NW) 09:35:35 435.350 FM
YUBILEINY 23 Mar 09:42:18 09:50:54 58° 283° (WNW) 09:59:30 435.215
BEESAT 3 23 Mar 09:46:55 09:50:21 27° 246° (WSW) 09:53:46 437.485
TIGRISAT 23 Mar 09:51:42 09:55:48 31° 68° (ENE) 09:59:55 435.000
BEESAT 2 23 Mar 09:53:23 09:57:23 58° 239° (WSW) 10:01:20 435.950
AAUSAT CUBESAT 2 23 Mar 09:59:30 10:03:36 63° 286° (WNW) 10:07:42 437.432
AO-73 23 Mar 10:00:04 10:04:16 56° 100° (E) 10:08:21 145.935
UNISAT 6 23 Mar 10:00:21 10:04:44 40° 70° (ENE) 10:09:06 437.425
CUTE 1.7 + AOD 2 23 Mar 10:03:48 10:06:55 20° 294° (WNW) 10:10:02 437.475
SEEDS 23 Mar 10:03:56 10:07:32 29° 291° (WNW) 10:11:09 437.485
UWE-3 23 Mar 10:15:58 10:20:13 51° 287° (WNW) 10:24:20 435.000/436.395/437.385
DELFI C3 23 Mar 10:18:48 10:22:00 23° 94° (E) 10:25:11 145.870
PRISM 23 Mar 10:22:35 10:26:33 56° 259° (WSW) 10:30:35 437.425
PCSat 23 Mar 10:27:42 10:32:14 28° 109° (ESE) 10:36:48 145.827
CUBEBUG 2 23 Mar 10:42:23 10:45:33 19° 296° (WNW) 10:48:38 437.445
FO-29 23 Mar 10:43:56 10:51:44 71° 72° (ENE) 10:59:11 435.910
Oscar 11 23 Mar 11:05:21 11:09:13 33° 290° (WNW) 11:13:04 .
ZACube-1 23 Mar 11:06:01 11:09:34 26° 293° (WNW) 11:13:03 437.345
HO-68 23 Mar 11:06:40 11:11:27 20° 307° (NW) 11:16:13 435.675
NO-84 23 Mar 11:09:28 11:10:51 13° 344° (NNW) 11:12:16 435.350 FM
NANOSAT C BR1 23 Mar 11:16:33 11:19:39 20° 65° (ENE) 11:22:46 145.865
EO-79 23 Mar 11:18:24 11:21:44 22° 66° (ENE) 11:25:05 145.935-145.965
TIGRISAT 23 Mar 11:28:20 11:32:26 29° 265° (W) 11:36:32 435.000
LO-87 23 Mar 11:28:45 11:31:08 16° 93° (E) 11:33:29 145.935 - 145.965
AIST 2D 23 Mar 11:31:23 11:34:46 45° 74° (ENE) 11:38:11 435.315
AO-73 23 Mar 11:37:43 11:40:01 14° 298° (WNW) 11:42:17 145.935
UNISAT 6 23 Mar 11:37:52 11:41:32 22° 267° (W) 11:45:14 437.425
POLYITAN 1 23 Mar 11:44:30 11:48:33 41° 71° (ENE) 11:52:36 437.675
YUBILEINY 23 Mar 11:46:56 11:49:57 12° 307° (NW) 11:52:59 435.215
QB50P2 23 Mar 11:48:49 11:52:57 50° 72° (ENE) 11:57:07 145.880/145.840
DELFI C3 23 Mar 11:53:21 11:56:47 28° 291° (WNW) 12:00:12 145.870
DUCHIFAT 1 23 Mar 12:06:47 12:10:58 60° 74° (ENE) 12:15:11 145.980
PCSat 23 Mar 12:10:13 12:15:25 45° 307° (NW) 12:20:38 145.827
Oscar 19 23 Mar 12:19:05 12:21:08 12° 57° (ENE) 12:23:12 437.125/150
RS-15 23 Mar 12:19:16 12:27:44 23° 99° (E) 12:36:21 29.354- 29.394
FO-29 23 Mar 12:30:53 12:37:10 26° 269° (W) 12:43:18 435.910
BUGSAT 1 23 Mar 12:38:16 12:42:18 45° 72° (ENE) 12:46:22 437.445
VELOX 1 23 Mar 12:42:17 12:45:28 19° 93° (E) 12:48:38 145.980
ESTCUBE 1 23 Mar 12:49:03 12:53:34 72° 102° (ESE) 12:58:04 437.505/2401.250
NANOSAT C BR1 23 Mar 12:51:05 12:55:06 39° 262° (W) 12:59:08 145.865
EO-79 23 Mar 12:53:24 12:57:18 34° 263° (W) 13:01:15 145.935-145.965
LO-87 23 Mar 13:01:22 13:04:41 33° 289° (WNW) 13:07:59 145.935 - 145.965
AIST 2D 23 Mar 13:07:04 13:08:15 11° 270° (W) 13:09:26 435.315
UKube-1 23 Mar 13:20:08 13:22:18 13° 91° (E) 13:24:27 .
POLYITAN 1 23 Mar 13:21:31 13:24:31 18° 267° (W) 13:27:30 437.675
QB50P2 23 Mar 13:26:30 13:29:02 15° 269° (W) 13:31:34 145.880/145.840
Gurwin Techsat 1B 23 Mar 13:39:54 13:44:46 38° 68° (ENE) 13:49:40 435.225
DUCHIFAT 1 23 Mar 13:45:12 13:47:01 12° 270° (W) 13:48:52 145.980
SPROUT 23 Mar 13:53:35 13:57:54 85° 284° (WNW) 14:02:11 437.525
Oscar 19 23 Mar 13:54:33 13:59:40 86° 73° (ENE) 14:04:49 437.125/150
PCSat 23 Mar 13:58:50 14:00:15 11° 330° (NNW) 14:01:41 145.827
ITAMSAT 1 23 Mar 13:58:56 14:00:07 11° 55° (NE) 14:01:19 435.822/435.867
DX 1 23 Mar 14:06:49 14:11:11 61° 101° (ESE) 14:15:31 434.975-435.025
BUGSAT 1 23 Mar 14:15:12 14:17:53 16° 268° (W) 14:20:36 437.445
50 SAT 23 Mar 14:16:10 14:19:36 51° 286° (WNW) 14:23:00 437.505
AO-7 23 Mar 14:16:52 14:23:30 28° 53° (NE) 14:30:07 .
VELOX 1 23 Mar 14:17:52 14:22:06 43° 289° (WNW) 14:26:19 145.980
NO-84 23 Mar 14:25:25 14:28:02 23° 27° (NNE) 14:30:51 435.350 FM
RS-15 23 Mar 14:26:19 14:38:20 85° 120° (ESE) 14:50:47 29.354- 29.394
ESTCUBE 1 23 Mar 14:27:41 14:29:48 13° 299° (WNW) 14:31:53 437.505/2401.250
UKube-1 23 Mar 14:54:26 14:58:41 58° 287° (WNW) 15:02:56 .
BEESAT 23 Mar 15:13:39 15:16:52 18° 92° (E) 15:20:03 436.000
SO-50 23 Mar 15:15:51 15:18:28 15° 109° (ESE) 15:21:04 436.795
Gurwin Techsat 1B 23 Mar 15:20:11 15:24:46 29° 265° (W) 15:29:24 435.225
ITUPSAT 1 23 Mar 15:26:58 15:30:47 23° 94° (E) 15:34:34 437.325
ITAMSAT 1 23 Mar 15:33:27 15:38:39 72° 73° (ENE) 15:43:53 435.822/435.867
Oscar 19 23 Mar 15:38:02 15:39:39 11° 272° (W) 15:41:17 437.125/150
DX 1 23 Mar 15:44:27 15:46:52 15° 298° (WNW) 15:49:17 434.975-435.025
MOZHAYETS 4 23 Mar 16:01:55 16:05:30 22° 93° (E) 16:09:04
NO-84 23 Mar 16:02:33 16:05:46 50° 223° (SW) 16:09:15 435.350 FM
AO-7 23 Mar 16:07:09 16:15:29 77° 253° (WSW) 16:23:51 .
RS-15 23 Mar 16:41:14 16:52:24 39° 328° (NNW) 17:03:47 29.354- 29.394
CUBESAT XI-V 23 Mar 16:46:30 16:47:43 11° 88° (E) 16:48:57 437.345
BEESAT 23 Mar 16:50:19 16:54:56 51° 289° (WNW) 16:59:32 436.000
SO-50 23 Mar 16:53:46 16:58:24 68° 307° (NW) 17:03:00 436.795
CUTE-I 23 Mar 17:01:50 17:03:33 12° 55° (NE) 17:05:16 437.470
ITUPSAT 1 23 Mar 17:04:18 17:08:43 39° 291° (WNW) 17:13:07 437.325
ITAMSAT 1 23 Mar 17:15:46 17:18:38 15° 270° (W) 17:21:31 435.822/435.867
MOZHAYETS 4 23 Mar 17:38:34 17:42:46 37° 290° (WNW) 17:46:56
KKS-1 23 Mar 17:44:51 17:49:18 58° 101° (E) 17:53:42 437.445
YUBILEINY 23 Mar 17:56:01 18:01:09 16° 57° (ENE) 18:06:16 435.215
LilacSat-2 23 Mar 17:58:45 18:02:04 28° 70° (ENE) 18:05:23 437.200
O/OREOS (USA 219) 23 Mar 18:02:09 18:06:29 46° 107° (ESE) 18:10:50 437.305
HO-68 23 Mar 18:02:58 18:07:05 17° 51° (NE) 18:11:13 435.675
XW-2F 23 Mar 18:03:40 18:06:59 29° 70° (ENE) 18:10:19 145.980 - 146.000
AO-7 23 Mar 18:05:08 18:09:32 15° 272° (W) 18:13:58 .
DOVE 4 23 Mar 18:06:48 18:11:13 49° 72° (ENE) 18:15:58 437.250
CUBESAT XI-V 23 Mar 18:20:59 18:25:38 79° 283° (WNW) 18:30:17 437.345
XW-2D 23 Mar 18:26:52 18:30:38 60° 75° (ENE) 18:34:23 145.860 - 145.880
M-CUBED/EXP-1 PRIME 23 Mar 18:28:32 18:29:52 11° 94° (E) 18:31:11 437.505
STARS 23 Mar 18:30:48 18:35:16 80° 103° (ESE) 18:39:40 437.465
XW-2B 23 Mar 18:32:40 18:36:28 69° 75° (ENE) 18:40:16 145.730 - 145.750
CUTE-I 23 Mar 18:37:18 18:42:39 75° 73° (ENE) 18:48:03 437.470
SO-50 23 Mar 18:37:25 18:39:43 13° 326° (NNW) 18:42:00 436.795
NUDT-PHONESAT 23 Mar 18:38:53 18:42:37 66° 75° (ENE) 18:46:21 437.300
KAITUO 1B 23 Mar 18:41:46 18:45:30 72° 75° (ENE) 18:49:15 145.475/437.950
XW-2C 23 Mar 18:42:40 18:46:30 87° 257° (WSW) 18:50:20 145.795 - 145.815
RS-15 23 Mar 18:59:46 19:09:42 26° 2° (N) 19:19:32 29.354- 29.394
PCSat 23 Mar 19:13:44 19:18:34 31° 48° (NE) 19:23:22 145.827
CUTE 1.7 + AOD 2 23 Mar 19:21:01 19:24:41 30° 69° (ENE) 19:28:22 437.475
SEEDS 23 Mar 19:21:23 19:24:27 20° 66° (ENE) 19:27:32 437.485
KKS-1 23 Mar 19:22:41 19:25:24 16° 298° (WNW) 19:28:05 437.445
STRAND 1 23 Mar 19:29:14 19:31:46 14° 89° (E) 19:34:16 437.568
LilacSat-2 23 Mar 19:33:23 19:36:21 21° 266° (W) 19:39:20 437.200
XW-2F 23 Mar 19:38:20 19:41:10 20° 266° (W) 19:44:00 145.980 - 146.000
UWE-3 23 Mar 19:38:43 19:41:36 16° 63° (ENE) 19:44:27 435.000/436.395/437.385
O/OREOS (USA 219) 23 Mar 19:42:43 19:46:08 21° 306° (NW) 19:49:35 437.305
XW-2A 23 Mar 19:44:35 19:48:01 72° 76° (ENE) 19:51:29 145.665 - 145.685
DOVE 4 23 Mar 19:46:05 19:49:16 18° 270° (W) 19:52:34 437.250
HO-68 23 Mar 19:46:32 19:53:40 76° 71° (ENE) 20:00:49 435.675
YUBILEINY 23 Mar 19:50:54 19:59:38 76° 81° (E) 20:08:20 435.215
M-CUBED/EXP-1 PRIME 23 Mar 20:00:09 20:04:46 85° 288° (WNW) 20:09:26 437.505
CUBEBUG 2 23 Mar 20:03:15 20:07:45 43° 71° (ENE) 20:12:14 437.445
STARS 23 Mar 20:09:21 20:10:56 12° 301° (WNW) 20:12:33 437.465
CUTE-I 23 Mar 20:20:19 20:23:16 15° 271° (W) 20:26:13 437.470
Oscar 11 23 Mar 20:25:35 20:28:48 21° 66° (ENE) 20:32:01 .
ZACube-1 23 Mar 20:26:02 20:29:54 28° 68° (ENE) 20:33:44 437.345
AAUSAT CUBESAT 2 23 Mar 20:50:06 20:54:12 87° 258° (WSW) 20:58:20 437.432
AO-73 23 Mar 20:55:49 21:00:13 50° 72° (ENE) 21:04:34 145.935
SEEDS 23 Mar 20:56:04 20:59:55 36° 263° (W) 21:03:47 437.485
PCSat 23 Mar 20:56:58 21:02:06 44° 247° (WSW) 21:07:12 145.827
CUTE 1.7 + AOD 2 23 Mar 20:57:04 21:00:31 24° 266° (W) 21:03:58 437.475
DELFI C3 23 Mar 21:06:03 21:08:27 16° 65° (ENE) 21:10:52 145.870
STRAND 1 23 Mar 21:06:22 21:11:29 75° 287° (WNW) 21:16:34 437.568
UWE-3 23 Mar 21:12:57 21:17:34 60° 260° (W) 21:22:11 435.000/436.395/437.385
RS-15 23 Mar 21:15:04 21:26:41 43° 36° (NE) 21:37:53 29.354- 29.394
M-CUBED/EXP-1 PRIME 23 Mar 21:36:47 21:38:30 12° 306° (NW) 21:40:14 437.505
HO-68 23 Mar 21:36:56 21:42:04 21° 269° (W) 21:47:13 435.675
CUBEBUG 2 23 Mar 21:40:53 21:44:30 21° 268° (W) 21:48:09 437.445
YUBILEINY 23 Mar 21:49:05 21:55:28 24° 281° (W) 22:01:53 435.215
Oscar 11 23 Mar 22:00:40 22:04:41 38° 262° (W) 22:08:44 .
ZACube-1 23 Mar 22:02:01 22:06:04 31° 264° (W) 22:10:06 437.345
PRISM 23 Mar 22:03:34 22:06:25 18° 93° (E) 22:09:15 437.425
ISS 23 Mar 22:17:40 22:20:33 29° 138° (SE) 22:23:28 437.550
Tancredo 1 23 Mar 22:32:00 22:35:02 44° 141° (SE) 22:38:06 437.200
AO-73 23 Mar 22:33:45 22:36:42 17° 269° (W) 22:39:37 145.935
AO-85 23 Mar 22:35:29 22:39:55 82° 121° (ESE) 22:44:04 145.980
DELFI C3 23 Mar 22:39:11 22:42:54 42° 262° (W) 22:46:40 145.870
STRAND 1 23 Mar 22:48:41 22:49:46 11° 304° (NW) 22:50:51 437.568
TIGRISAT 23 Mar 23:18:14 23:22:38 54° 100° (E) 23:26:53 435.000
UNISAT 6 23 Mar 23:27:21 23:31:51 75° 102° (ESE) 23:36:11 437.425
RS-15 23 Mar 23:28:02 23:40:16 74° 242° (WSW) 23:51:56 29.354- 29.394
BEESAT 3 23 Mar 23:37:09 23:40:42 34° 116° (ESE) 23:44:20 437.485
LO-87 23 Mar 23:37:48 23:41:22 73° 258° (WSW) 23:45:00 145.935 - 145.965
PRISM 23 Mar 23:37:57 23:41:51 40° 289° (WNW) 23:45:45 437.425
FO-29 23 Mar 23:38:54 23:44:58 52° 98° (E) 23:50:21 435.910
VELOX 1 23 Mar 23:40:40 23:43:51 20° 64° (ENE) 23:47:03 145.980
SO-50 23 Mar 23:44:21 23:47:51 21° 41° (NE) 23:51:19 436.795
BEESAT 2 23 Mar 23:46:38 23:49:19 18° 111° (ESE) 23:52:00 435.950
ESTCUBE 1 23 Mar 23:49:15 23:53:42 73° 75° (ENE) 23:58:11 437.505/2401.250
ISS 23 Mar 23:53:50 23:56:58 41° 336° (NNW) 00:00:06 437.550
Tancredo 1 24 Mar 00:08:23 00:11:16 31° 339° (NNW) 00:14:11 437.200
UKube-1 24 Mar 00:15:53 00:18:11 14° 62° (ENE) 00:20:29 .
AO-85 24 Mar 00:18:20 00:20:47 15° 321° (NW) 00:23:10 145.980
AIST 2D 24 Mar 00:28:32 00:31:57 47° 99° (E) 00:35:18 435.315
NANOSAT C BR1 24 Mar 00:34:19 00:38:01 29° 96° (E) 00:41:40 145.865
EO-79 24 Mar 00:36:44 00:40:37 33° 97° (E) 00:44:26 145.935-145.965
SPROUT 24 Mar 00:47:25 00:51:44 82° 74° (ENE) 00:56:03 437.525
50 SAT 24 Mar 00:50:20 00:53:43 65° 76° (ENE) 00:57:10 437.505
TIGRISAT 24 Mar 00:56:08 00:58:50 16° 298° (WNW) 01:01:30 435.000
DX 1 24 Mar 01:02:59 01:07:15 59° 73° (ENE) 01:11:34 434.975-435.025
POLYITAN 1 24 Mar 01:03:38 01:07:53 67° 102° (ESE) 01:12:04 437.675
UNISAT 6 24 Mar 01:06:06 01:07:54 12° 300° (WNW) 01:09:41 437.425
QB50P2 24 Mar 01:08:05 01:12:22 82° 102° (ESE) 01:16:35 145.880/145.840
BEESAT 3 24 Mar 01:15:04 01:18:22 25° 315° (NW) 01:21:44 437.485
VELOX 1 24 Mar 01:15:50 01:20:00 42° 261° (W) 01:24:14 145.980
BEESAT 2 24 Mar 01:22:56 01:26:44 45° 309° (NW) 01:30:37 435.950
SO-50 24 Mar 01:24:13 01:28:38 57° 240° (WSW) 01:33:02 436.795
FO-29 24 Mar 01:24:37 01:29:35 25° 300° (WNW) 01:34:07 435.910
DUCHIFAT 1 24 Mar 01:25:09 01:29:24 84° 284° (WNW) 01:33:36 145.980
ESTCUBE 1 24 Mar 01:29:42 01:31:00 11° 271° (W) 01:32:19 437.505/2401.250
ISS 24 Mar 01:31:35 01:34:03 19° 355° (N) 01:36:30 437.550
Tancredo 1 24 Mar 01:45:50 01:48:08 18° 359° (N) 01:50:26 437.200
